AKJ1409 VIDP-VOHS

Flight info

Callsign AKJ1409
Flight time 2h 8m
Altitude 37000
Route AKRIB7G AKRIB Z16 BULDI Q23 PEDMA/N0443F380 DCT SUSMA BINAT6
Aircraft B738/M-SDE2E3FGHIRWXY/LB1

Departure

Time 2026-04-29 05:39
Airport Indira Gandhi International Airport (VIDP)

Arrival

Time 2026-04-29 07:47
Airport Rajiv Gandhi International Airport (VOHS)
Time Latitude Longitude Altitude Speed Heading
2026-04-29 05:30 28.55147 77.08281 750 ft 0 kts 329°
2026-04-29 05:31 28.55133 77.08291 745 ft 2 kts 329°
2026-04-29 05:31 28.55119 77.08300 745 ft 2 kts 328°
2026-04-29 05:31 28.55105 77.08311 747 ft 2 kts 326°
2026-04-29 05:32 28.55092 77.08321 748 ft 2 kts 322°
2026-04-29 05:32 28.55079 77.08334 745 ft 2 kts 301°
2026-04-29 05:32 28.55077 77.08350 745 ft 1 kts 246°
2026-04-29 05:32 28.55078 77.08354 745 ft 0 kts 244°
2026-04-29 05:34 28.55076 77.08350 745 ft 2 kts 243°
2026-04-29 05:34 28.55049 77.08330 746 ft 7 kts 198°
2026-04-29 05:34 28.54987 77.08307 749 ft 11 kts 199°
2026-04-29 05:34 28.54921 77.08273 750 ft 11 kts 232°
2026-04-29 05:35 28.54928 77.08191 747 ft 14 kts 304°
2026-04-29 05:35 28.54976 77.08040 748 ft 25 kts 284°
2026-04-29 05:35 28.55018 77.07855 749 ft 23 kts 284°
2026-04-29 05:35 28.55058 77.07679 749 ft 23 kts 287°
2026-04-29 05:36 28.55098 77.07510 750 ft 22 kts 284°
2026-04-29 05:36 28.55135 77.07344 749 ft 21 kts 284°
2026-04-29 05:36 28.55173 77.07184 747 ft 21 kts 284°
2026-04-29 05:36 28.55208 77.07027 750 ft 20 kts 271°
2026-04-29 05:37 28.55104 77.06953 747 ft 19 kts 193°
2026-04-29 05:37 28.54987 77.06965 748 ft 19 kts 117°
2026-04-29 05:37 28.54952 77.07104 748 ft 18 kts 103°
2026-04-29 05:37 28.54923 77.07240 748 ft 17 kts 103°
2026-04-29 05:38 28.54896 77.07371 748 ft 17 kts 103°
2026-04-29 05:38 28.54868 77.07497 750 ft 16 kts 103°
2026-04-29 05:38 28.54834 77.07654 750 ft 59 kts 104°
2026-04-29 05:38 28.54661 77.08467 750 ft 149 kts 103°
2026-04-29 05:39 28.54432 77.09638 928 ft 199 kts 106°
2026-04-29 05:39 28.54118 77.11153 1707 ft 216 kts 104°
2026-04-29 05:39 28.53712 77.12693 3198 ft 196 kts 124°
2026-04-29 05:39 28.52630 77.13781 3658 ft 229 kts 163°
2026-04-29 05:40 28.50952 77.13952 3954 ft 258 kts 184°
2026-04-29 05:40 28.49130 77.13862 4722 ft 265 kts 183°
2026-04-29 05:40 28.47273 77.13821 5105 ft 266 kts 181°
2026-04-29 05:40 28.45401 77.13852 5250 ft 273 kts 179°
2026-04-29 05:41 28.43500 77.13953 5288 ft 274 kts 177°
2026-04-29 05:41 28.41582 77.14095 5795 ft 278 kts 176°
2026-04-29 05:41 28.39665 77.14258 6680 ft 277 kts 176°
2026-04-29 05:41 28.37752 77.14427 6974 ft 276 kts 176°
2026-04-29 05:42 28.35813 77.14603 6990 ft 281 kts 176°
2026-04-29 05:42 28.33873 77.14782 7008 ft 278 kts 176°
2026-04-29 05:42 28.31937 77.14962 7190 ft 282 kts 175°
2026-04-29 05:42 28.29973 77.15143 8047 ft 282 kts 176°
2026-04-29 05:43 28.28034 77.14924 9017 ft 282 kts 198°
2026-04-29 05:43 28.26170 77.14189 9864 ft 285 kts 200°
2026-04-29 05:43 28.24279 77.13401 10508 ft 298 kts 200°
2026-04-29 05:43 28.22256 77.12553 10887 ft 317 kts 200°
2026-04-29 05:44 28.20159 77.11680 11605 ft 324 kts 200°
2026-04-29 05:44 28.18031 77.10800 12426 ft 327 kts 200°
2026-04-29 05:44 28.15882 77.09917 13224 ft 330 kts 200°
2026-04-29 05:44 28.13711 77.09028 13978 ft 334 kts 200°
2026-04-29 05:45 28.11509 77.08129 14724 ft 338 kts 200°
2026-04-29 05:45 28.09283 77.07222 15455 ft 342 kts 200°
2026-04-29 05:45 28.07032 77.06305 16169 ft 346 kts 200°
2026-04-29 05:45 28.04755 77.05378 16864 ft 349 kts 200°
2026-04-29 05:46 28.02453 77.04442 17545 ft 353 kts 200°
2026-04-29 05:46 28.00131 77.03498 18212 ft 357 kts 200°
2026-04-29 05:46 27.97780 77.02543 18857 ft 361 kts 200°
2026-04-29 05:46 27.95407 77.01580 19491 ft 364 kts 200°
2026-04-29 05:47 27.93012 77.00608 20098 ft 368 kts 200°
2026-04-29 05:47 27.90625 76.99641 20698 ft 371 kts 200°
2026-04-29 05:47 27.88182 76.98651 21293 ft 375 kts 200°
2026-04-29 05:47 27.85718 76.97654 21845 ft 378 kts 200°
2026-04-29 05:48 27.83232 76.96647 22410 ft 381 kts 200°
2026-04-29 05:48 27.80724 76.95633 22941 ft 385 kts 200°
2026-04-29 05:48 27.78193 76.94609 23469 ft 388 kts 200°
2026-04-29 05:48 27.75641 76.93577 23974 ft 391 kts 200°
2026-04-29 05:49 27.73071 76.92539 24470 ft 394 kts 200°
2026-04-29 05:49 27.70481 76.91493 24952 ft 397 kts 200°
2026-04-29 05:49 27.67869 76.90438 25421 ft 400 kts 200°
2026-04-29 05:49 27.65239 76.89377 25875 ft 403 kts 200°
2026-04-29 05:50 27.62587 76.88307 26313 ft 406 kts 200°
2026-04-29 05:50 27.59922 76.87233 26738 ft 409 kts 200°
2026-04-29 05:50 27.57236 76.86150 27155 ft 411 kts 200°
2026-04-29 05:50 27.54530 76.85061 27559 ft 414 kts 200°
2026-04-29 05:51 27.51808 76.83965 27951 ft 417 kts 200°
2026-04-29 05:51 27.49071 76.82863 28332 ft 419 kts 200°
2026-04-29 05:51 27.46314 76.81755 28704 ft 422 kts 200°
2026-04-29 05:51 27.43542 76.80642 29069 ft 424 kts 199°
2026-04-29 05:52 27.40669 76.79874 29365 ft 428 kts 184°
2026-04-29 05:52 27.37688 76.79912 29751 ft 429 kts 178°
2026-04-29 05:52 27.34703 76.80069 30087 ft 431 kts 177°
2026-04-29 05:52 27.31738 76.80245 30389 ft 434 kts 177°
2026-04-29 05:53 27.28712 76.80421 30687 ft 436 kts 177°
2026-04-29 05:53 27.25675 76.80587 30995 ft 438 kts 178°
2026-04-29 05:53 27.22617 76.80742 31301 ft 440 kts 178°
2026-04-29 05:53 27.19546 76.80889 31597 ft 442 kts 178°
2026-04-29 05:54 27.16460 76.81031 31881 ft 445 kts 178°
2026-04-29 05:54 27.13363 76.81170 32151 ft 447 kts 178°
2026-04-29 05:54 27.10251 76.81308 32436 ft 448 kts 178°
2026-04-29 05:54 27.07139 76.81446 32806 ft 447 kts 178°
2026-04-29 05:55 27.04045 76.81583 33211 ft 445 kts 178°
2026-04-29 05:55 27.00955 76.81720 33581 ft 444 kts 178°
2026-04-29 05:55 26.97869 76.81857 33900 ft 444 kts 178°
2026-04-29 05:55 26.94784 76.81994 34220 ft 444 kts 178°
2026-04-29 05:56 26.91702 76.82131 34542 ft 443 kts 178°
2026-04-29 05:56 26.88627 76.82267 34869 ft 442 kts 178°
2026-04-29 05:56 26.85560 76.82404 35168 ft 441 kts 178°
2026-04-29 05:56 26.82491 76.82540 35459 ft 441 kts 178°
2026-04-29 05:57 26.79430 76.82676 35749 ft 440 kts 178°
2026-04-29 05:57 26.76373 76.82811 36032 ft 440 kts 178°
2026-04-29 05:57 26.73312 76.82947 36283 ft 440 kts 178°
2026-04-29 05:57 26.70252 76.83082 36492 ft 441 kts 178°
2026-04-29 05:58 26.67185 76.83218 36711 ft 441 kts 178°
2026-04-29 05:58 26.64121 76.83353 36960 ft 441 kts 178°
2026-04-29 05:58 26.57947 76.83626 37005 ft 446 kts 178°
2026-04-29 05:59 26.51804 76.83897 36989 ft 442 kts 178°
2026-04-29 05:59 26.45695 76.84167 37000 ft 438 kts 178°
2026-04-29 06:00 26.39607 76.84435 37004 ft 438 kts 178°
2026-04-29 06:00 26.33526 76.84702 37003 ft 438 kts 178°
2026-04-29 06:01 26.27437 76.84970 37003 ft 438 kts 178°
2026-04-29 06:01 26.21346 76.85237 37001 ft 438 kts 178°
2026-04-29 06:02 26.15243 76.85505 37004 ft 439 kts 178°
2026-04-29 06:02 26.09129 76.85773 37003 ft 440 kts 178°
2026-04-29 06:03 26.03005 76.86041 37004 ft 441 kts 178°
2026-04-29 06:03 25.96872 76.86309 37001 ft 441 kts 178°
2026-04-29 06:04 25.90730 76.86577 37001 ft 442 kts 178°
2026-04-29 06:04 25.84586 76.86845 37001 ft 442 kts 178°
2026-04-29 06:05 25.78437 76.87113 37001 ft 442 kts 178°
2026-04-29 06:05 25.72330 76.87379 37001 ft 442 kts 178°
2026-04-29 06:06 25.66185 76.87647 37001 ft 442 kts 178°
2026-04-29 06:06 25.60045 76.87913 37001 ft 441 kts 178°
2026-04-29 06:07 25.53915 76.88180 37002 ft 441 kts 178°
2026-04-29 06:07 25.47783 76.88445 37000 ft 441 kts 178°
2026-04-29 06:08 25.41658 76.88711 37002 ft 440 kts 178°
2026-04-29 06:08 25.35540 76.88976 37001 ft 440 kts 178°
2026-04-29 06:09 25.29423 76.89240 37000 ft 440 kts 178°
2026-04-29 06:09 25.23311 76.89504 37002 ft 439 kts 178°
2026-04-29 06:10 25.17196 76.89768 37001 ft 439 kts 178°
2026-04-29 06:10 25.11091 76.90031 37002 ft 439 kts 178°
2026-04-29 06:11 25.04980 76.90294 37001 ft 439 kts 178°
2026-04-29 06:11 24.98869 76.90558 37002 ft 439 kts 178°
2026-04-29 06:12 24.92759 76.90828 37002 ft 440 kts 178°
2026-04-29 06:12 24.86648 76.91099 37000 ft 440 kts 178°
2026-04-29 06:13 24.80531 76.91371 37001 ft 440 kts 178°
2026-04-29 06:13 24.74416 76.91641 37002 ft 440 kts 178°
2026-04-29 06:14 24.68295 76.91911 37001 ft 440 kts 178°
2026-04-29 06:14 24.62175 76.92181 37002 ft 440 kts 178°
2026-04-29 06:15 24.56052 76.92451 37001 ft 440 kts 178°
2026-04-29 06:15 24.49933 76.92720 37000 ft 440 kts 178°
2026-04-29 06:16 24.43806 76.92990 37002 ft 440 kts 178°
2026-04-29 06:16 24.37684 76.93257 37001 ft 440 kts 178°
2026-04-29 06:17 24.31562 76.93522 37002 ft 440 kts 178°
2026-04-29 06:17 24.25479 76.93784 37002 ft 440 kts 178°
2026-04-29 06:18 24.19363 76.94048 37001 ft 440 kts 178°
2026-04-29 06:18 24.13236 76.94312 37001 ft 440 kts 178°
2026-04-29 06:19 24.07117 76.94576 37001 ft 440 kts 178°
2026-04-29 06:19 24.00997 76.94840 37001 ft 440 kts 178°
2026-04-29 06:20 23.94873 76.95103 37003 ft 440 kts 178°
2026-04-29 06:20 23.88755 76.95366 37000 ft 440 kts 178°
2026-04-29 06:21 23.82642 76.95629 37001 ft 440 kts 178°
2026-04-29 06:21 23.76530 76.95891 37001 ft 440 kts 178°
2026-04-29 06:22 23.70414 76.96153 37002 ft 439 kts 178°
2026-04-29 06:22 23.64312 76.96414 37001 ft 439 kts 178°
2026-04-29 06:23 23.58194 76.96676 37000 ft 439 kts 178°
2026-04-29 06:23 23.52225 76.96931 37001 ft 439 kts 178°
2026-04-29 06:24 23.46118 76.97192 37001 ft 439 kts 178°
2026-04-29 06:24 23.40059 76.97450 37001 ft 439 kts 178°
2026-04-29 06:25 23.33957 76.97710 37001 ft 439 kts 178°
2026-04-29 06:25 23.27856 76.97970 37001 ft 439 kts 178°
2026-04-29 06:26 23.21752 76.98230 37002 ft 439 kts 178°
2026-04-29 06:26 23.15656 76.98526 36998 ft 439 kts 174°
2026-04-29 06:27 23.09679 76.99846 37001 ft 439 kts 166°
2026-04-29 06:27 23.03754 77.01446 37003 ft 439 kts 166°
2026-04-29 06:28 22.98819 77.02760 37000 ft 439 kts 167°
2026-04-29 06:28 22.92880 77.04306 37002 ft 439 kts 167°
2026-04-29 06:29 22.86927 77.05838 37001 ft 440 kts 167°
2026-04-29 06:29 22.80972 77.07367 37002 ft 440 kts 167°
2026-04-29 06:30 22.72038 77.09660 37002 ft 440 kts 167°
2026-04-29 06:31 22.66076 77.11190 37000 ft 440 kts 167°
2026-04-29 06:31 22.60117 77.12717 37002 ft 440 kts 167°
2026-04-29 06:32 22.54160 77.14242 37000 ft 440 kts 167°
2026-04-29 06:32 22.48203 77.15766 37002 ft 440 kts 167°
2026-04-29 06:33 22.42248 77.17289 37001 ft 440 kts 167°
2026-04-29 06:33 22.36296 77.18810 37002 ft 439 kts 167°
2026-04-29 06:34 22.30352 77.20342 37002 ft 439 kts 167°
2026-04-29 06:34 22.24403 77.21878 37001 ft 439 kts 167°
2026-04-29 06:35 22.18462 77.23410 37001 ft 439 kts 167°
2026-04-29 06:35 22.13704 77.24635 37001 ft 439 kts 167°
2026-04-29 06:36 22.13406 77.24712 37001 ft 439 kts 167°
2026-04-29 06:36 22.07498 77.26227 37001 ft 439 kts 167°
2026-04-29 06:37 22.01557 77.27743 37001 ft 439 kts 167°
2026-04-29 06:37 21.95624 77.29267 37000 ft 438 kts 167°
2026-04-29 06:38 21.89689 77.30793 37001 ft 438 kts 167°
2026-04-29 06:38 21.83758 77.32315 37001 ft 438 kts 167°
2026-04-29 06:39 21.77827 77.33835 37000 ft 438 kts 167°
2026-04-29 06:39 21.71899 77.35354 37001 ft 438 kts 167°
2026-04-29 06:40 21.65967 77.36874 37002 ft 438 kts 167°
2026-04-29 06:40 21.60036 77.38387 37002 ft 438 kts 167°
2026-04-29 06:41 21.54085 77.39804 37001 ft 438 kts 168°
2026-04-29 06:41 21.48122 77.41184 37002 ft 438 kts 168°
2026-04-29 06:42 21.42162 77.42573 37002 ft 439 kts 168°
2026-04-29 06:42 21.36195 77.43973 37002 ft 439 kts 168°
2026-04-29 06:43 21.30231 77.45374 36999 ft 439 kts 168°
2026-04-29 06:43 21.24264 77.46774 37001 ft 439 kts 168°
2026-04-29 06:44 21.18291 77.48175 37002 ft 439 kts 168°
2026-04-29 06:44 21.12322 77.49573 37000 ft 439 kts 168°
2026-04-29 06:45 21.06357 77.50970 37001 ft 439 kts 168°
2026-04-29 06:45 21.00391 77.52366 37001 ft 439 kts 168°
2026-04-29 06:46 20.94425 77.53762 37001 ft 439 kts 168°
2026-04-29 06:46 20.88461 77.55157 37001 ft 438 kts 168°
2026-04-29 06:47 20.82504 77.56549 37002 ft 438 kts 168°
2026-04-29 06:47 20.76547 77.57948 37001 ft 438 kts 168°
2026-04-29 06:48 20.70594 77.59350 37003 ft 438 kts 168°
2026-04-29 06:48 20.64637 77.60753 37000 ft 438 kts 168°
2026-04-29 06:49 20.58685 77.62154 37001 ft 438 kts 168°
2026-04-29 06:49 20.52729 77.63554 37002 ft 438 kts 168°
2026-04-29 06:50 20.46778 77.64953 37001 ft 438 kts 168°
2026-04-29 06:50 20.40827 77.66350 37000 ft 438 kts 168°
2026-04-29 06:51 20.34875 77.67746 37001 ft 438 kts 168°
2026-04-29 06:51 20.28923 77.69141 37001 ft 438 kts 168°
2026-04-29 06:52 20.22973 77.70534 37000 ft 438 kts 168°
2026-04-29 06:52 20.17025 77.71926 37003 ft 437 kts 168°
2026-04-29 06:53 20.11078 77.73317 37002 ft 438 kts 168°
2026-04-29 06:53 20.05170 77.74698 37001 ft 438 kts 168°
2026-04-29 06:54 19.99183 77.76095 36999 ft 437 kts 168°
2026-04-29 06:54 19.93280 77.77473 37001 ft 437 kts 168°
2026-04-29 06:55 19.87339 77.78858 37002 ft 437 kts 168°
2026-04-29 06:55 19.81393 77.80243 37001 ft 437 kts 168°
2026-04-29 06:56 19.75445 77.81628 37002 ft 437 kts 168°
2026-04-29 06:56 19.69504 77.83010 37001 ft 437 kts 168°
2026-04-29 06:57 19.63557 77.84392 37002 ft 437 kts 168°
2026-04-29 06:57 19.57611 77.85774 37002 ft 437 kts 168°
2026-04-29 06:58 19.51667 77.87154 37000 ft 437 kts 168°
2026-04-29 06:58 19.45724 77.88533 37002 ft 437 kts 168°
2026-04-29 06:59 19.39779 77.89912 37001 ft 437 kts 168°
2026-04-29 06:59 19.33835 77.91291 37003 ft 437 kts 168°
2026-04-29 07:00 19.27893 77.92667 37003 ft 437 kts 168°
2026-04-29 07:00 19.21947 77.94049 36999 ft 437 kts 168°
2026-04-29 07:01 19.16005 77.95433 37003 ft 437 kts 168°
2026-04-29 07:01 19.10063 77.96819 37000 ft 438 kts 168°
2026-04-29 07:02 19.04152 77.98194 37001 ft 437 kts 168°
2026-04-29 07:02 18.98142 77.98950 37001 ft 436 kts 185°
2026-04-29 07:02 18.95158 77.98431 37000 ft 435 kts 196°
2026-04-29 07:03 18.92299 77.97345 36797 ft 439 kts 204°
2026-04-29 07:03 18.89510 77.96032 36551 ft 438 kts 205°
2026-04-29 07:03 18.86763 77.94682 36299 ft 433 kts 205°
2026-04-29 07:03 18.84055 77.93343 36044 ft 427 kts 205°
2026-04-29 07:04 18.81374 77.92030 35786 ft 423 kts 205°
2026-04-29 07:04 18.78703 77.90737 35537 ft 421 kts 205°
2026-04-29 07:04 18.76041 77.89463 35287 ft 419 kts 204°
2026-04-29 07:04 18.73387 77.88202 35038 ft 417 kts 204°
2026-04-29 07:05 18.70739 77.86950 34790 ft 416 kts 204°
2026-04-29 07:05 18.68103 77.85705 34540 ft 415 kts 204°
2026-04-29 07:05 18.65470 77.84464 34288 ft 414 kts 204°
2026-04-29 07:05 18.62848 77.83228 34044 ft 413 kts 204°
2026-04-29 07:06 18.60228 77.81993 33795 ft 412 kts 204°
2026-04-29 07:06 18.57618 77.80763 33548 ft 411 kts 204°
2026-04-29 07:06 18.55011 77.79534 33298 ft 410 kts 204°
2026-04-29 07:06 18.52413 77.78310 33049 ft 409 kts 204°
2026-04-29 07:07 18.49820 77.77089 32800 ft 408 kts 204°
2026-04-29 07:07 18.47232 77.75870 32551 ft 406 kts 204°
2026-04-29 07:07 18.44656 77.74658 32302 ft 405 kts 204°
2026-04-29 07:07 18.42087 77.73450 32053 ft 404 kts 204°
2026-04-29 07:08 18.39527 77.72246 31802 ft 402 kts 204°
2026-04-29 07:08 18.36979 77.71047 31550 ft 400 kts 204°
2026-04-29 07:08 18.34439 77.69854 31298 ft 399 kts 204°
2026-04-29 07:08 18.31910 77.68666 31054 ft 397 kts 204°
2026-04-29 07:09 18.29399 77.67486 30807 ft 395 kts 204°
2026-04-29 07:09 18.26894 77.66310 30551 ft 393 kts 204°
2026-04-29 07:09 18.24405 77.65141 30300 ft 391 kts 204°
2026-04-29 07:09 18.21922 77.63976 30049 ft 389 kts 204°
2026-04-29 07:10 18.19454 77.62818 29802 ft 387 kts 204°
2026-04-29 07:10 18.16998 77.61666 29544 ft 386 kts 204°
2026-04-29 07:10 18.14550 77.60518 29300 ft 384 kts 204°
2026-04-29 07:10 18.12117 77.59378 29052 ft 382 kts 204°
2026-04-29 07:11 18.09690 77.58241 28803 ft 381 kts 204°
2026-04-29 07:11 18.07277 77.57110 28554 ft 379 kts 204°
2026-04-29 07:11 18.04868 77.55981 28303 ft 378 kts 204°
2026-04-29 07:11 18.02471 77.54859 28053 ft 377 kts 204°
2026-04-29 07:12 18.01306 77.54313 27938 ft 376 kts 204°
2026-04-29 07:21 18.00868 77.54108 27889 ft 376 kts 204°
2026-04-29 07:22 17.98483 77.52988 27635 ft 374 kts 204°
2026-04-29 07:22 17.96064 77.52040 27322 ft 371 kts 191°
2026-04-29 07:22 17.93671 77.51948 27028 ft 368 kts 172°
2026-04-29 07:22 17.91244 77.52744 26658 ft 366 kts 153°
2026-04-29 07:23 17.89180 77.54269 26280 ft 364 kts 134°
2026-04-29 07:23 17.87543 77.56287 25935 ft 362 kts 129°
2026-04-29 07:23 17.85996 77.58374 25550 ft 362 kts 128°
2026-04-29 07:23 17.84473 77.60470 25175 ft 360 kts 128°
2026-04-29 07:24 17.82981 77.62521 25017 ft 356 kts 128°
2026-04-29 07:24 17.81489 77.64557 24994 ft 347 kts 128°
2026-04-29 07:24 17.80036 77.66526 24989 ft 335 kts 128°
2026-04-29 07:24 17.78630 77.68420 24980 ft 323 kts 128°
2026-04-29 07:25 17.77272 77.70245 24984 ft 311 kts 128°
2026-04-29 07:25 17.75961 77.72003 24977 ft 300 kts 128°
2026-04-29 07:25 17.74701 77.73691 24984 ft 290 kts 128°
2026-04-29 07:25 17.73464 77.75349 24906 ft 291 kts 129°
2026-04-29 07:26 17.72194 77.77041 24850 ft 296 kts 129°
2026-04-29 07:26 17.70923 77.78740 24837 ft 296 kts 128°
2026-04-29 07:26 17.69652 77.80443 24567 ft 297 kts 128°
2026-04-29 07:26 17.68371 77.82158 24175 ft 300 kts 128°
2026-04-29 07:27 17.67058 77.83913 23399 ft 316 kts 128°
2026-04-29 07:27 17.65645 77.85801 22334 ft 341 kts 128°
2026-04-29 07:27 17.64166 77.87778 21803 ft 346 kts 129°
2026-04-29 07:27 17.62688 77.89752 21539 ft 342 kts 128°
2026-04-29 07:28 17.61230 77.91700 21272 ft 338 kts 128°
2026-04-29 07:28 17.59783 77.93632 20947 ft 336 kts 128°
2026-04-29 07:28 17.58347 77.95556 20606 ft 335 kts 128°
2026-04-29 07:28 17.56924 77.97488 20274 ft 334 kts 128°
2026-04-29 07:29 17.55533 77.99385 19958 ft 332 kts 128°
2026-04-29 07:29 17.54114 78.01320 19637 ft 330 kts 128°
2026-04-29 07:29 17.52719 78.03223 19310 ft 328 kts 128°
2026-04-29 07:29 17.51336 78.05107 18963 ft 324 kts 128°
2026-04-29 07:30 17.50703 78.05970 18754 ft 323 kts 128°
2026-04-29 07:31 17.47971 78.09683 17749 ft 321 kts 128°
2026-04-29 07:31 17.46614 78.11526 17285 ft 318 kts 128°
2026-04-29 07:31 17.45272 78.13353 16840 ft 316 kts 128°
2026-04-29 07:31 17.43938 78.15169 16393 ft 313 kts 128°
2026-04-29 07:32 17.42613 78.16970 15930 ft 311 kts 128°
2026-04-29 07:32 17.41296 78.18760 15482 ft 309 kts 128°
2026-04-29 07:32 17.39989 78.20534 15035 ft 307 kts 128°
2026-04-29 07:32 17.38690 78.22298 14593 ft 305 kts 128°
2026-04-29 07:33 17.37398 78.24052 14151 ft 303 kts 128°
2026-04-29 07:33 17.36117 78.25791 13711 ft 301 kts 128°
2026-04-29 07:33 17.34844 78.27518 13275 ft 299 kts 128°
2026-04-29 07:33 17.33577 78.29235 12846 ft 297 kts 128°
2026-04-29 07:34 17.32320 78.30938 12453 ft 294 kts 128°
2026-04-29 07:34 17.31324 78.32774 12048 ft 291 kts 107°
2026-04-29 07:34 17.31094 78.34856 11669 ft 288 kts 89°
2026-04-29 07:34 17.31147 78.36934 11368 ft 282 kts 89°
2026-04-29 07:35 17.31203 78.38947 11197 ft 272 kts 89°
2026-04-29 07:35 17.31252 78.40898 10976 ft 265 kts 89°
2026-04-29 07:35 17.31295 78.42809 10703 ft 261 kts 89°
2026-04-29 07:35 17.31334 78.44700 10362 ft 260 kts 89°
2026-04-29 07:36 17.31372 78.46587 10015 ft 259 kts 89°
2026-04-29 07:36 17.31408 78.48463 9679 ft 257 kts 89°
2026-04-29 07:36 17.31444 78.50330 9344 ft 256 kts 89°
2026-04-29 07:36 17.31480 78.52188 9011 ft 255 kts 89°
2026-04-29 07:37 17.31516 78.54038 8679 ft 254 kts 89°
2026-04-29 07:37 17.31551 78.55878 8349 ft 252 kts 89°
2026-04-29 07:37 17.31586 78.57716 7861 ft 257 kts 89°
2026-04-29 07:37 17.31623 78.59636 7221 ft 268 kts 89°
2026-04-29 07:38 17.31660 78.61591 6892 ft 266 kts 89°
2026-04-29 07:38 17.31696 78.63514 6698 ft 263 kts 89°
2026-04-29 07:38 17.31733 78.65426 6514 ft 264 kts 89°
2026-04-29 07:38 17.31769 78.67358 6180 ft 270 kts 89°
2026-04-29 07:39 17.31806 78.69350 5674 ft 275 kts 89°
2026-04-29 07:39 17.31844 78.71352 5178 ft 276 kts 89°
2026-04-29 07:39 17.31868 78.73335 4684 ft 276 kts 94°
2026-04-29 07:39 17.31277 78.75221 4158 ft 276 kts 127°
2026-04-29 07:40 17.29799 78.76438 3708 ft 272 kts 161°
2026-04-29 07:40 17.27997 78.76534 3621 ft 254 kts 197°
2026-04-29 07:40 17.26600 78.75576 3612 ft 235 kts 234°
2026-04-29 07:40 17.25784 78.74164 3613 ft 223 kts 227°
2026-04-29 07:41 17.24490 78.73377 3644 ft 217 kts 198°
2026-04-29 07:41 17.23176 78.72625 3613 ft 219 kts 230°
2026-04-29 07:41 17.22629 78.71187 3628 ft 212 kts 271°
2026-04-29 07:41 17.22858 78.69721 3633 ft 198 kts 278°
2026-04-29 07:42 17.23030 78.68337 3631 ft 189 kts 276°
2026-04-29 07:42 17.23145 78.66978 3623 ft 187 kts 273°
2026-04-29 07:42 17.23185 78.65617 3630 ft 188 kts 270°
2026-04-29 07:42 17.23183 78.64244 3636 ft 189 kts 269°
2026-04-29 07:43 17.23163 78.62876 3623 ft 186 kts 268°
2026-04-29 07:43 17.23144 78.61560 3614 ft 176 kts 268°
2026-04-29 07:43 17.23128 78.60303 3627 ft 171 kts 269°
2026-04-29 07:43 17.23111 78.59048 3633 ft 173 kts 269°
2026-04-29 07:44 17.23093 78.57788 3636 ft 173 kts 269°
2026-04-29 07:44 17.23075 78.56546 3616 ft 169 kts 269°
2026-04-29 07:44 17.23055 78.55321 3576 ft 168 kts 268°
2026-04-29 07:44 17.23037 78.54096 3539 ft 167 kts 268°
2026-04-29 07:45 17.23021 78.52920 3446 ft 158 kts 268°
2026-04-29 07:45 17.23005 78.51787 3305 ft 154 kts 268°
2026-04-29 07:45 17.22989 78.50663 3074 ft 153 kts 268°
2026-04-29 07:45 17.22979 78.49932 2930 ft 151 kts 268°
2026-04-29 07:46 17.22972 78.49481 2846 ft 150 kts 268°
2026-04-29 07:46 17.22957 78.48402 2659 ft 150 kts 268°
2026-04-29 07:46 17.22941 78.47330 2463 ft 150 kts 268°
2026-04-29 07:46 17.22927 78.46237 2262 ft 150 kts 268°
2026-04-29 07:47 17.22906 78.45152 2073 ft 148 kts 268°
2026-04-29 07:47 17.22889 78.44098 1994 ft 132 kts 269°
2026-04-29 07:47 17.22884 78.43436 1997 ft 74 kts 269°
2026-04-29 07:47 17.22928 78.43016 1994 ft 37 kts 298°
2026-04-29 07:48 17.23001 78.42888 1993 ft 0 kts 301°
2026-04-29 07:49 17.23010 78.42873 1993 ft 9 kts 303°
2026-04-29 07:49 17.23074 78.42769 1995 ft 24 kts 307°
2026-04-29 07:50 17.23258 78.42730 1997 ft 25 kts
2026-04-29 07:50 17.23397 78.42730 1997 ft 12 kts 357°
2026-04-29 07:50 17.23410 78.42730 1997 ft 1 kts 357°
2026-04-29 07:50 17.23417 78.42729 1996 ft 0 kts 357°
2026-04-29 07:52 17.23413 78.42729 1997 ft 2 kts 357°
2026-04-29 07:52 17.23414 78.42729 1997 ft 0 kts 357°